sat.trackr.live / text

‹ back to catalog

STARLINK-32957

NORAD 63124 · 2025-039W

PAYLOAD ACTIVE UNKNOWN

§ Identity

Operator
Country
US
Launch date
2025-02-27
Launch site
AFETR
Launch vehicle
Mass (kg)
RCS (m²)

Purposes: comms

External: N2YO · Heavens-Above · Gunter

§ Orbital elements

Epoch: 2026-05-25T02:49:48.671616Z

Period
94.27 min
Inclination
43.0038°
Eccentricity
0.0001127
Mean motion
15.27596839 rev/d
Perigee alt
482.2 km
Apogee alt
483.8 km
Semi-major
6,861.1 km
B*
4.3811e-4
RAAN
301.3182°
Arg perigee
266.5317°
Mean anomaly
93.5406°
Rev number
6,975

§ Raw data

STARLINK-329571 63124U 25039W   26145.11792444  .00011819  00000+0  43811-3 0  99942 63124  43.0038 301.3182 0001127 266.5317  93.5406 15.27596839 69754

JSON: /api/v1/satellites/63124 · /tle

For live sub-satellite position, see the globe view (requires WebGL).

§ Visibility from observer

Set your observer location to see the next 7 days of passes ≥ 10°. The values pass through the URL so the page stays shareable.

No JS? Fill the form by hand. The geolocation button needs JavaScript.